Location: Newark
(45.4422°N, 16.2769°E)
Time: 06:05:58
(UTC+00:00)

Courier 1B Rocket - Pass Details

Date: 11 December 2019
Orbit: 920 x 1202 km, 28.2° (Epoch: 20 January)

Event Time Altitude Azimuth Distance (km) Brightness Sun altitude
Rises 05:22:21 0° 224° (SW) 3,820 7.9 -10.4°
Reaches altitude 10° 05:26:28 10° 202° (SSW) 2,803 7.4 -9.8°
Maximum altitude 05:30:00 15° 170° (S) 2,414 7.5 -9.2°
Drops below altitude 10° 05:33:26 10° 138° (SE) 2,706 8.5 -8.7°
Sets 05:37:17 0° 116° (ESE) 3,608 10.6 -8.0°
